Home   Weather   Halmstad   Past weeks

Flag for Sweden Past Weather in Halmstad, Sweden — Yesterday and Last 2 Weeks

43 °F


Feels Like: 34 °F
Forecast: 42 / 48 °F
Wind: 18 mph from East

Location: Halmstad Swedish Air Force Base

Current Time: Oct 22, 2016 at 6:14:29 PM

Latest Report: Oct 22, 2016 at 5:20 PM

Visibility: N/A

Pressure: 30.01 "Hg

Humidity: 87%

Dew Point: 39 °F

Location of HalmstadLocation

Past Weather in Halmstad — Graph


Halmstad Temperature Yesterday

Maximum temperature yesterday: 46 °F (at 12:20 AM)
Minimum temperature yesterday: 45 °F (at 2:20 PM)
Average temperature yesterday: 46 °F

High & Low Weather Summary for the Past Weeks

High57 °F (Oct 7, 4:20 PM)100% (Oct 10, 3:20 AM)30.45 "Hg (Oct 10, 3:20 AM)
Low39 °F (Oct 8, 2:20 AM)31% (Oct 7, 4:20 PM)30.01 "Hg (Oct 19, 1:50 AM)
Average46 °F81%30.24 "Hg
* Reported Oct 7 4:20 PM — Oct 22 4:50 PM, Halmstad, Weather by CustomWeather, © 2016

Note: Actual official high and low records may vary slightly from our data, if they occured in-between our weather recording intervals... More about our weather records


Halmstad Weather History for the Previous 24 Hours

Scroll right to see more
Time TempWeatherWind HumidityBarometerVisibility
4:50 PM
Sat, Oct 22
43 °FOvercast.18 mph81%30.01 "HgN/A
4:20 PM43 °FMostly cloudy.17 mph81%30.01 "HgN/A
3:50 PM43 °FOvercast.18 mph81%30.01 "HgN/A
3:20 PM43 °FOvercast.16 mph81%30.01 "HgN/A
2:50 PM41 °FOvercast.16 mph87%30.04 "HgN/A
2:20 PM41 °FOvercast.14 mph87%30.04 "HgN/A
1:50 PM41 °FMostly cloudy.17 mph87%30.04 "HgN/A
1:20 PM41 °FBroken clouds.16 mph87%30.04 "HgN/A
12:50 PM41 °FBroken clouds.16 mph87%30.04 "HgN/A
12:20 PM41 °FBroken clouds.16 mph87%30.04 "HgN/A
11:50 AM41 °FBroken clouds.16 mph87%30.04 "HgN/A
11:20 AM41 °FMore clouds than sun.15 mph87%30.04 "HgN/A
10:50 AM41 °FMostly cloudy.16 mph87%30.04 "HgN/A
10:20 AM39 °FLight rain. Broken clouds.14 mph93%30.04 "HgN/A
9:50 AM39 °FLight rain. Passing clouds.14 mph93%30.07 "HgN/A
9:20 AM39 °FPassing clouds.14 mph93%30.07 "HgN/A
8:50 AM39 °FPassing clouds.15 mph87%30.07 "HgN/A
8:20 AM39 °FLight rain. Cloudy.15 mph93%30.07 "HgN/A
7:50 AM39 °FLight rain. Passing clouds.15 mph93%30.07 "HgN/A
7:20 AM41 °FLight rain. Partly cloudy.15 mph87%30.07 "HgN/A
6:50 AM41 °FRain. Passing clouds.14 mph93%30.07 "HgN/A
6:20 AM43 °FLight rain. Passing clouds.14 mph87%30.07 "HgN/A
5:50 AM43 °FPartly cloudy.13 mph81%30.07 "HgN/A
5:20 AM43 °FOvercast.12 mph87%30.07 "HgN/A
4:50 AM43 °FOvercast.13 mph87%30.07 "HgN/A
4:20 AM43 °FMostly cloudy.16 mph81%30.09 "HgN/A
3:50 AM43 °FOvercast.15 mph87%30.09 "HgN/A
3:20 AM45 °FMostly cloudy.13 mph81%30.09 "HgN/A
2:20 AM45 °FMostly cloudy.14 mph81%30.09 "HgN/A
1:50 AM45 °FOvercast.15 mph81%30.09 "HgN/A
1:20 AM45 °FMostly cloudy.12 mph81%30.09 "HgN/A
12:50 AM45 °FMostly cloudy.13 mph81%30.09 "HgN/A
12:20 AM45 °FOvercast.14 mph81%30.12 "HgN/A
11:50 PM
Fri, Oct 21
45 °FOvercast.15 mph81%30.12 "HgN/A
11:20 PM45 °FOvercast.14 mph81%30.12 "HgN/A
10:50 PM45 °FOvercast.14 mph81%30.12 "HgN/A
10:20 PM45 °FOvercast.13 mph81%30.12 "HgN/A
9:50 PM45 °FMostly cloudy.13 mph81%30.12 "HgN/A
9:20 PM45 °FOvercast.13 mph81%30.09 "HgN/A
8:50 PM45 °FOvercast.14 mph81%30.09 "HgN/A
8:20 PM45 °FOvercast.16 mph81%30.09 "HgN/A
7:50 PM45 °FOvercast.15 mph81%30.09 "HgN/A
7:20 PM45 °FMostly cloudy.14 mph81%30.09 "HgN/A
6:50 PM45 °FPassing clouds.15 mph81%30.09 "HgN/A
6:20 PM45 °FMostly cloudy.14 mph81%30.09 "HgN/A
Weather by CustomWeather, © 2016

See weather overviewHow to use our weather pages